Data for 10/06/2017

Time Sea-Level Adjusted Pressure Absolute Pressure Temperature Relative Humidity Dew Point   
(mb) (inHg) (mb) (inHg) (C) (F) (%) (C) (F)
00:05 1021 30.15 850 25.1 1.9 35.4 76 -1.9 28.6
00:10 1021 30.15 850 25.1 2 35.6 75 -1.9 28.6
00:15 1021 30.15 850 25.1 2.1 35.7 75 -1.9 28.7
00:20 1021 30.15 850 25.1 2.2 36 75 -1.8 28.7
00:25 1021 30.15 850 25.1 2.3 36.2 74 -1.9 28.5
00:30 1021 30.15 850 25.1 2.4 36.3 73 -1.9 28.6
00:35 1021 30.15 850 25.1 2.5 36.5 73 -1.9 28.5
00:40 1021 30.15 850 25.1 2.6 36.7 72 -1.8 28.7
00:45 1021 30.15 850 25.1 2.5 36.5 73 -1.8 28.7
00:50 1021 30.15 850 25.1 2.4 36.4 73 -1.9 28.5
00:55 1021 30.15 850 25.1 2.4 36.3 73 -1.9 28.6
01:00 1021 30.15 850 25.1 2.3 36.1 74 -1.9 28.7
01:05 1021 30.15 850 25.1 2.2 35.9 75 -1.9 28.6
01:10 1021 30.15 850 25.1 2.1 35.8 75 -1.9 28.5
01:15 1020 30.12 850 25.1 2.1 35.9 74 -2 28.4
01:20 1020 30.12 850 25.1 2.3 36.1 74 -1.9 28.5
01:25 1020 30.12 850 25.1 2.2 36 73 -2.1 28.3
01:30 1020 30.12 850 25.1 2.5 36.5 72 -2 28.4
01:35 1020 30.12 850 25.1 2.5 36.5 72 -2.1 28.3
01:40 1020 30.12 850 25.1 2.6 36.7 72 -2 28.3
01:45 1020 30.12 850 25.1 2.6 36.7 71 -2 28.3
01:50 1020 30.12 849 25.07 2.5 36.5 72 -2 28.4
01:55 1020 30.12 849 25.07 2.5 36.5 71 -2.2 28
02:00 1020 30.12 849 25.07 2.6 36.7 70 -2.2 28
02:05 1020 30.12 849 25.07 2.8 37.1 69 -2.2 28
02:10 1020 30.12 849 25.07 2.9 37.2 69 -2.1 28.1
02:15 1020 30.12 849 25.07 2.8 37.1 69 -2.2 28
02:20 1020 30.12 849 25.07 3 37.3 69 -2.2 28
02:25 1020 30.12 849 25.07 2.9 37.3 68 -2.4 27.7
02:30 1020 30.12 849 25.07 3 37.3 68 -2.5 27.6
02:35 1020 30.12 849 25.07 3.1 37.6 67 -2.4 27.7
02:40 1020 30.12 849 25.07 3.2 37.7 67 -2.4 27.6
02:45 1020 30.12 849 25.07 3.2 37.7 68 -2.2 28.1
02:50 1020 30.12 849 25.07 3 37.5 68 -2.2 28
02:55 1020 30.12 849 25.07 2.9 37.3 71 -1.8 28.7
03:00 1020 30.12 849 25.07 2.7 36.9 70 -2.1 28.1
03:05 1020 30.12 849 25.07 2.7 36.9 70 -2.1 28.2
03:10 1020 30.12 849 25.07 2.9 37.2 69 -2.3 27.9
03:15 1020 30.12 849 25.07 3 37.4 69 -2.1 28.2
03:20 1020 30.12 849 25.07 3 37.4 70 -1.9 28.5
03:25 1020 30.12 849 25.07 2.8 37.1 72 -1.8 28.7
03:30 1020 30.12 849 25.07 2.6 36.8 70 -2.3 27.8
03:35 1020 30.12 849 25.07 3.3 37.9 64 -2.9 26.8
03:40 1020 30.12 849 25.07 3.4 38.1 66 -2.4 27.7
03:45 1020 30.12 849 25.07 3.1 37.5 70 -1.9 28.5
03:50 1020 30.12 849 25.07 2.4 36.3 72 -2.1 28.2
03:55 1020 30.12 849 25.07 2.5 36.5 71 -2.3 27.9
04:00 1020 30.12 849 25.07 2.5 36.5 71 -2.3 27.9
04:05 1020 30.12 849 25.07 2.4 36.4 71 -2.2 28
04:10 1020 30.12 849 25.07 2.4 36.3 72 -2.1 28.2
04:15 1020 30.12 849 25.07 2.4 36.3 71 -2.3 27.9
04:20 1020 30.12 849 25.07 2.3 36.2 72 -2.2 28
04:25 1020 30.12 849 25.07 2.2 36 72 -2.3 27.9
04:30 1020 30.12 849 25.07 2.1 35.7 73 -2.3 27.8
04:35 1020 30.12 849 25.07 2.1 35.8 71 -2.7 27.2
04:40 1020 30.12 849 25.07 2.5 36.4 69 -2.7 27.1
04:45 1020 30.12 849 25.07 2.6 36.6 68 -2.7 27.1
04:50 1020 30.12 849 25.07 2.5 36.4 69 -2.7 27.1
04:55 1019 30.09 849 25.07 2.4 36.4 69 -2.7 27.2
05:00 1019 30.09 849 25.07 2.3 36.1 70 -2.7 27.2
05:05 1019 30.09 849 25.07 2.2 35.9 72 -2.4 27.7
05:10 1019 30.09 849 25.07 1.8 35.2 74 -2.4 27.6
05:15 1019 30.09 849 25.07 1.4 34.6 76 -2.4 27.6
05:20 1019 30.09 849 25.07 1.1 34 78 -2.4 27.8
05:25 1019 30.09 849 25.07 0.9 33.6 78 -2.5 27.5
05:30 1019 30.09 849 25.07 1.2 34.1 77 -2.4 27.6
05:35 1019 30.09 848 25.04 1.4 34.5 76 -2.5 27.6
05:40 1019 30.09 848 25.04 1.6 34.8 75 -2.4 27.7
05:45 1019 30.09 848 25.04 1.6 34.8 75 -2.4 27.8
05:50 1019 30.09 848 25.04 1.5 34.6 76 -2.4 27.7
05:55 1019 30.09 848 25.04 1.4 34.4 76 -2.4 27.7
06:00 1019 30.09 848 25.04 1.2 34.1 77 -2.5 27.6
06:05 1019 30.09 848 25.04 1.2 34.2 76 -2.6 27.4
06:10 1019 30.09 848 25.04 1.2 34.1 77 -2.4 27.6
06:15 1019 30.09 848 25.04 1.3 34.3 76 -2.5 27.5
06:20 1019 30.09 848 25.04 1.7 35.1 73 -2.6 27.3
06:25 1019 30.09 848 25.04 2 35.6 73 -2.4 27.7
06:30 1019 30.09 848 25.04 2.1 35.8 71 -2.5 27.4
06:35 1019 30.09 848 25.04 2.2 36 70 -2.6 27.4
06:40 1019 30.09 848 25.04 2.4 36.2 70 -2.5 27.5
06:45 1019 30.09 848 25.04 2.2 36 71 -2.5 27.5
06:50 1019 30.09 848 25.04 2 35.6 73 -2.4 27.7
06:55 1019 30.09 848 25.04 1.5 34.6 76 -2.3 27.8
07:00 1019 30.09 848 25.04 1.8 35.2 71 -2.9 26.8
07:05 1019 30.09 848 25.04 2.5 36.5 69 -2.6 27.3
07:10 1019 30.09 848 25.04 2.7 36.9 68 -2.6 27.4
07:15 1019 30.09 848 25.04 2.9 37.2 68 -2.5 27.5
07:20 1019 30.09 848 25.04 3.2 37.7 67 -2.4 27.7
07:25 1019 30.09 849 25.07 3.5 38.3 66 -2.3 27.9
07:30 1019 30.09 848 25.04 3.6 38.5 67 -2.1 28.3
07:35 1019 30.09 848 25.04 3.4 38.1 68 -1.9 28.5
07:40 1019 30.09 848 25.04 3.7 38.6 66 -2.1 28.2
07:45 1019 30.09 848 25.04 4.3 39.7 64 -1.8 28.7
07:50 1019 30.09 848 25.04 4.4 39.9 63 -2 28.4
07:55 1019 30.09 848 25.04 4.6 40.2 64 -1.6 29.1
08:00 1019 30.09 848 25.04 5 41 62 -1.7 29
08:05 1019 30.09 848 25.04 5.2 41.4 62 -1.4 29.4
08:10 1019 30.09 848 25.04 5.5 42 61 -1.3 29.6
08:15 1019 30.09 848 25.04 5.9 42.7 60 -1.2 29.8
08:20 1019 30.09 848 25.04 6.1 43 60 -1.1 30.1
08:25 1019 30.09 848 25.04 6.5 43.8 59 -1 30.2
08:30 1019 30.09 848 25.04 7.1 44.8 57 -0.9 30.4
08:35 1019 30.09 848 25.04 7.1 44.8 57 -0.7 30.7
08:40 1019 30.09 848 25.04 7.3 45.1 57 -0.7 30.8
08:45 1019 30.09 848 25.04 7.8 46 56 -0.6 31
08:50 1019 30.09 849 25.07 8.4 47.2 52 -0.7 30.7
08:55 1019 30.09 849 25.07 9.1 48.3 51 -0.4 31.3
09:00 1019 30.09 849 25.07 9.5 49.2 49 -0.7 30.7
09:05 1020 30.12 849 25.07 9.5 49.1 48 -0.9 30.3
09:10 1019 30.09 849 25.07 9.6 49.3 46 -1.5 29.3
09:15 1019 30.09 849 25.07 10.1 50.2 45 -1.4 29.5
09:20 1019 30.09 849 25.07 10.2 50.4 43 -1.7 29
09:25 1019 30.09 849 25.07 10.2 50.4 45 -1.3 29.7
09:30 1019 30.09 848 25.04 10.3 50.5 42 -1.9 28.6
09:35 1019 30.09 848 25.04 10.4 50.7 43 -1.5 29.3
09:40 1019 30.09 848 25.04 10.6 51 42 -1.7 29
09:45 1019 30.09 848 25.04 10.6 51.2 41 -2 28.5
09:50 1019 30.09 848 25.04 10.8 51.4 40 -2.3 27.8
09:55 1019 30.09 848 25.04 11 51.7 41 -1.7 29
10:00 1019 30.09 848 25.04 10.8 51.5 41 -1.9 28.5
10:05 1019 30.09 848 25.04 11.5 52.7 40 -1.6 29.2
10:10 1019 30.09 848 25.04 11.8 53.2 40 -1.3 29.6
10:15 1019 30.09 848 25.04 11.8 53.3 40 -1.2 29.9
10:20 1019 30.09 848 25.04 12 53.5 40 -1 30.1
10:25 1019 30.09 848 25.04 11.6 53 43 -0.6 30.9
10:30 1019 30.09 848 25.04 11.5 52.7 42 -0.9 30.4
10:35 1019 30.09 848 25.04 11.7 53 40 -1.5 29.2
10:40 1019 30.09 848 25.04 12.3 54.1 39 -1.4 29.6
10:45 1019 30.09 848 25.04 11.7 53.1 41 -0.9 30.4
10:50 1019 30.09 848 25.04 11.6 52.9 39 -1.9 28.7
10:55 1019 30.09 848 25.04 12.6 54.7 37 -1.6 29.1
11:00 1019 30.09 848 25.04 13 55.4 36 -1.7 29
11:05 1018 30.06 848 25.04 13.1 55.6 35 -1.9 28.6
11:10 1018 30.06 848 25.04 13.1 55.6 35 -1.9 28.5
11:15 1018 30.06 848 25.04 13.2 55.7 35 -2 28.4
11:20 1018 30.06 848 25.04 13.8 56.9 33 -2.3 27.9
11:25 1018 30.06 848 25.04 13.4 56.1 33 -2.4 27.6
11:30 1018 30.06 848 25.04 13.7 56.6 33 -2.2 28
11:35 1018 30.06 848 25.04 13.7 56.7 32 -2.7 27.2
11:40 1018 30.06 847 25.01 13.9 56.9 33 -2.1 28.1
11:45 1018 30.06 847 25.01 14.1 57.4 33 -2 28.4
11:50 1018 30.06 847 25.01 14.1 57.4 33 -1.9 28.5
11:55 1018 30.06 847 25.01 14.2 57.6 32 -2.2 28.1
12:00 1018 30.06 847 25.01 14 57.1 32 -2.5 27.6
12:05 1018 30.06 847 25.01 15.1 59.1 30 -2.4 27.6
12:10 1018 30.06 847 25.01 15 59.1 32 -1.7 29
12:15 1018 30.06 847 25.01 15.1 59.1 31 -2 28.4
12:20 1018 30.06 847 25.01 14.9 58.9 31 -1.8 28.8
12:25 1018 30.06 847 25.01 15.5 59.8 30 -1.8 28.8
12:30 1018 30.06 847 25.01 15.5 59.8 31 -1.4 29.5
12:35 1018 30.06 847 25.01 15.2 59.3 30 -2 28.3
12:40 1018 30.06 847 25.01 15.7 60.2 31 -1.4 29.6
12:45 1018 30.06 847 25.01 15.5 59.9 30 -1.7 28.9
12:50 1018 30.06 847 25.01 15.4 59.8 31 -1.7 29
12:55 1018 30.06 847 25.01 16 60.7 30 -1.7 29
13:00 1018 30.06 847 25.01 15.9 60.5 30 -1.4 29.5
13:05 1018 30.06 847 25.01 15.6 60.2 31 -1.5 29.4
13:10 1017 30.03 847 25.01 16.1 61 29 -1.8 28.8
13:15 1017 30.03 847 25.01 16.4 61.5 29 -1.5 29.3
13:20 1017 30.03 846 24.98 16.2 61.1 30 -1.3 29.6
13:25 1017 30.03 846 24.98 15.8 60.4 31 -1.4 29.4
13:30 1017 30.03 846 24.98 15.3 59.5 32 -1.1 30
13:35 1017 30.03 846 24.98 15.6 60 30 -1.6 29.1
13:40 1017 30.03 846 24.98 15.7 60.3 31 -1.3 29.7
13:45 1017 30.03 846 24.98 15.7 60.2 31 -1.4 29.4
13:50 1017 30.03 846 24.98 16 60.7 29 -2 28.4
13:55 1017 30.03 846 24.98 16.4 61.6 29 -1.6 29.1
14:00 1017 30.03 846 24.98 16.5 61.7 29 -1.5 29.2
14:05 1016 30 846 24.98 17.1 62.7 28 -1.6 29.1
14:10 1016 30 846 24.98 17.3 63.2 27 -1.8 28.8
14:15 1016 30 846 24.98 16.9 62.4 29 -1.4 29.6
14:20 1016 30 845 24.95 16.3 61.3 30 -1.3 29.7
14:25 1016 30 845 24.95 15.6 60 31 -1.3 29.7
14:30 1016 30 845 24.95 15 59 33 -0.9 30.3
14:35 1016 30 845 24.95 14.8 58.6 32 -1.5 29.3
14:40 1016 30 846 24.98 14.8 58.6 35 -0.6 30.9
14:45 1016 30 845 24.95 14.7 58.4 33 -1.5 29.3
14:50 1016 30 845 24.95 15.5 59.8 31 -1.3 29.7
14:55 1016 30 845 24.95 15.4 59.6 32 -1.2 29.8
15:00 1016 30 845 24.95 15.1 59.1 31 -1.6 29.1
15:05 1016 30 845 24.95 14.9 58.8 32 -1.4 29.4
15:10 1016 30 845 24.95 15 58.9 32 -1.4 29.5
15:15 1016 30 845 24.95 15.3 59.6 32 -1.2 29.8
15:20 1016 30 845 24.95 15 59 32 -1.4 29.5
15:25 1016 30 845 24.95 14.4 58 33 -1.4 29.4
15:30 1016 30 845 24.95 14.3 57.8 33 -1.5 29.3
15:35 1016 30 845 24.95 14.1 57.4 34 -1.6 29.1
15:40 1016 30 845 24.95 14.2 57.5 34 -1.4 29.4
15:45 1016 30 845 24.95 14.6 58.3 32 -1.7 28.9
15:50 1016 30 845 24.95 14.7 58.4 33 -1.5 29.4
15:55 1016 30 845 24.95 14.8 58.6 32 -1.6 29.1
16:00 1016 30 845 24.95 14.8 58.7 33 -1.4 29.5
16:05 1016 30 845 24.95 15.3 59.5 32 -1.3 29.7
16:10 1016 30 845 24.95 15.8 60.4 32 -0.9 30.4
16:15 1015 29.97 845 24.95 15.5 59.8 31 -1.5 29.4
16:20 1015 29.97 845 24.95 16 60.8 31 -1 30.2
16:25 1015 29.97 844 24.92 15.8 60.5 32 -0.9 30.3
16:30 1015 29.97 844 24.92 15.6 60 31 -1.3 29.6
16:35 1015 29.97 844 24.92 15.9 60.5 32 -0.9 30.4
16:40 1015 29.97 844 24.92 16 60.8 31 -1.2 29.9
16:45 1015 29.97 844 24.92 16.2 61.2 31 -0.9 30.3
16:50 1015 29.97 844 24.92 15.9 60.7 32 -0.8 30.6
16:55 1015 29.97 844 24.92 15.9 60.6 31 -1 30.2
17:00 1014 29.94 844 24.92 15.9 60.7 36 1 33.8
17:05 1014 29.94 844 24.92 16.2 61.2 31 -0.8 30.6
17:10 1014 29.94 843 24.89 16.3 61.3 32 -0.4 31.3
17:15 1014 29.94 843 24.89 16.5 61.7 31 -0.5 31
17:20 1014 29.94 843 24.89 16.2 61.2 32 -0.3 31.5
17:25 1014 29.94 843 24.89 15.7 60.3 32 -1 30.2
17:30 1014 29.94 843 24.89 15.6 60 33 -0.7 30.8
17:35 1014 29.94 843 24.89 15.3 59.6 33 -0.7 30.7
17:40 1014 29.94 843 24.89 15.1 59.1 33 -1 30.2
17:45 1014 29.94 843 24.89 14.8 58.7 33 -1.4 29.5
17:50 1014 29.94 843 24.89 14.7 58.5 31 -2 28.5
17:55 1014 29.94 843 24.89 14.9 58.8 31 -2 28.4
18:00 1014 29.94 843 24.89 14.9 58.7 31 -1.9 28.6
18:05 1014 29.94 843 24.89 14.8 58.7 31 -2.1 28.3
18:10 1014 29.94 843 24.89 14.8 58.7 31 -2.1 28.2
18:15 1014 29.94 843 24.89 14.8 58.6 31 -2.1 28.3
18:20 1014 29.94 843 24.89 14.6 58.2 32 -1.9 28.7
18:25 1014 29.94 843 24.89 14.3 57.7 33 -1.8 28.8
18:30 1014 29.94 843 24.89 14 57.3 33 -1.8 28.8
18:35 1014 29.94 843 24.89 13.9 57 34 -1.8 28.7
18:40 1014 29.94 843 24.89 13.8 56.8 34 -1.8 28.8
18:45 1014 29.94 843 24.89 13.7 56.7 34 -1.9 28.6
18:50 1014 29.94 843 24.89 13.8 56.8 33 -2 28.5
18:55 1014 29.94 843 24.89 13.8 56.9 33 -2 28.5
19:00 1014 29.94 843 24.89 13.7 56.7 34 -1.9 28.6
19:05 1014 29.94 843 24.89 13.5 56.2 34 -2.1 28.2
19:10 1014 29.94 843 24.89 13.3 56 34 -2 28.4
19:15 1014 29.94 843 24.89 13.3 55.9 35 -1.8 28.8
19:20 1013 29.91 843 24.89 13.6 56.5 32 -2.6 27.3
19:25 1013 29.91 843 24.89 14.3 57.8 31 -2.3 27.8
19:30 1013 29.91 842 24.86 14.5 58.2 31 -2.3 27.8
19:35 1013 29.91 843 24.89 14.6 58.4 31 -2.2 28
19:40 1013 29.91 843 24.89 14.7 58.5 31 -2.2 28.1
19:45 1013 29.91 843 24.89 14.7 58.4 31 -2.2 28
19:50 1014 29.94 843 24.89 14.7 58.4 31 -2.1 28.2
19:55 1014 29.94 843 24.89 14.6 58.3 31 -2.1 28.3
20:00 1014 29.94 843 24.89 14.6 58.2 31 -2.3 27.9
20:05 1014 29.94 843 24.89 14.7 58.4 31 -2.2 28
20:10 1014 29.94 843 24.89 14.7 58.4 30 -2.5 27.4
20:15 1014 29.94 843 24.89 15.1 59.1 29 -2.6 27.4
20:20 1014 29.94 843 24.89 15.2 59.4 30 -2.2 28
20:25 1014 29.94 843 24.89 15.2 59.3 30 -2.2 28.1
20:30 1014 29.94 843 24.89 15 59.1 31 -2 28.4
20:35 1014 29.94 843 24.89 14.7 58.5 31 -2.1 28.3
20:40 1014 29.94 843 24.89 14.6 58.2 31 -2.2 28.1
20:45 1014 29.94 843 24.89 14.6 58.4 31 -2.3 27.9
20:50 1013 29.91 843 24.89 14.8 58.6 31 -2 28.4
20:55 1013 29.91 843 24.89 14.8 58.7 31 -2.2 28.1
21:00 1013 29.91 842 24.86 14.7 58.5 31 -2 28.4
21:05 1013 29.91 842 24.86 14.6 58.2 32 -2.1 28.3
21:10 1013 29.91 842 24.86 14.6 58.2 31 -2.1 28.1
21:15 1013 29.91 842 24.86 14.5 58.1 31 -2.2 28.1
21:20 1013 29.91 842 24.86 14.4 57.8 33 -1.6 29.1
21:25 1013 29.91 842 24.86 14.3 57.7 31 -2.3 27.8
21:30 1013 29.91 842 24.86 14.5 58 32 -1.8 28.8
21:35 1013 29.91 842 24.86 14.2 57.6 33 -1.7 28.9
21:40 1012 29.88 842 24.86 13.9 57.1 34 -1.4 29.4
21:45 1012 29.88 842 24.86 13.8 56.8 34 -1.7 29
21:50 1012 29.88 842 24.86 13.8 56.8 34 -1.7 28.9
21:55 1013 29.91 842 24.86 13.6 56.5 34 -1.9 28.6
22:00 1012 29.88 842 24.86 13.7 56.6 34 -2 28.4
22:05 1013 29.91 842 24.86 13.8 56.8 33 -2.1 28.3
22:10 1013 29.91 842 24.86 14.1 57.3 33 -2 28.4
22:15 1013 29.91 842 24.86 14.3 57.7 32 -2.1 28.2
22:20 1013 29.91 842 24.86 14.4 58 32 -2.1 28.1
22:25 1013 29.91 842 24.86 14.5 58 32 -2 28.4
22:30 1013 29.91 842 24.86 14.4 58 32 -2 28.4
22:35 1013 29.91 842 24.86 14.3 57.7 32 -2 28.4
22:40 1013 29.91 842 24.86 14.1 57.4 32 -2.2 28.1
22:45 1013 29.91 842 24.86 14.1 57.3 32 -2.2 28
22:50 1012 29.88 842 24.86 14 57.3 32 -2.3 27.8
22:55 1012 29.88 842 24.86 14 57.2 32 -2.1 28.1
23:00 1012 29.88 842 24.86 13.8 56.9 33 -2.1 28.3
23:05 1012 29.88 842 24.86 13.6 56.6 33 -2.3 27.8
23:10 1012 29.88 842 24.86 13.6 56.5 32 -2.8 27
23:15 1012 29.88 841 24.83 13.9 57 31 -2.7 27.2
23:20 1012 29.88 841 24.83 13.9 57 31 -2.7 27.1
23:25 1012 29.88 841 24.83 14 57.2 30 -3.1 26.4
23:30 1012 29.88 841 24.83 14 57.3 30 -3.3 26
23:35 1012 29.88 841 24.83 14.1 57.4 29 -3.5 25.7
23:40 1012 29.88 841 24.83 14.1 57.4 29 -3.8 25.2
23:45 1012 29.88 841 24.83 14.1 57.3 28 -4.2 24.4
23:50 1012 29.88 841 24.83 14.1 57.5 27 -4.6 23.7
23:55 1012 29.88 841 24.83 14.3 57.7 26 -4.7 23.5
24:00 1012 29.88 841 24.83 14.3 57.8 26 -4.8 23.4